Location: Neuvy Saint Sepulchre
(46.5953°N, 1.8122°E)
Time: 21:10:24
(UTC+01:00)

ISS - Pass Details

Date: 24 March 2023
Orbit: 414 x 422 km, 51.6° (Epoch: 25 March)

Event Time Altitude Azimuth Distance (km) Brightness Sun altitude
Rises 21:52:07 0° 295° (WNW) 2,357 1.3 -26.8°
Reaches altitude 10° 21:54:15 10° 301° (WNW) 1,492 0.0 -27.1°
Enters shadow 21:55:41 22° 311° (NW) 954 -1.3 -27.3°
